Location: Unspecified
(0.0000°N, 0.0000°E)
Time: 16:46:39
(UTC+00:00)

Vanguard 3 - Pass Details

Date: 08 February 2023
Orbit: 509 x 3249 km, 33.3° (Epoch: 20 March)

Event Time Altitude Azimuth Distance (km) Brightness Sun altitude
Rises 21:48:44 0° 326° (NW) 5,446 11.5 -51.1°
Reaches altitude 10° 21:52:46 10° 338° (NNW) 4,838 11.0 -52.0°
Enters shadow 21:52:52 10° 338° (NNW) 4,825 11.0 -52.1°
Maximum altitude 22:05:05 29° 33° (NNE) 4,344 - -54.8°
Drops below altitude 10° 22:20:37 10° 86° (E) 6,186 - -58.3°
Sets 22:26:37 0° 96° (E) 7,165 - -59.6°
